Temp
63 63 63 63 63 62 63 62 63 63 63 63 63 64 64 64 64 88 97 97 96 76 77 105 107 107 108 103 95 85 62 59 69 86 86 97 94 99 88 70 92 98 96 97 99
63 63 63 62 62 62 62 62 62 62 63 63 63 63 63 63 90 99 92 78 77 77 102 104 104 107 101 102 101 71 66 70 95 95 94 95 96 96 86 71 76 87 98 99 99
62 62 62 62 62 62 62 62 62 62 62 63 63 63 63 67 93 103 79 77 77 81 105 108 109 106 99 103 102 97 89 97 97 97 99 97 95 98 92 83 81 89 93 96 96
62 62 62 62 62 61 61 61 62 62 62 62 62 63 64 91 85 105 79 78 78 99 105 106 106 100 98 95 103 93 99 98 98 99 98 94 98 93 94 93 92 97 97 96 95
61 61 61 61 61 61 61 61 61 61 61 61 62 63 83 93 99 101 79 82 97 102 104 105 102 101 95 100 100 96 98 98 100 99 97 98 94 93 92 97 100 99 97 96 96
60 60 61 61 61 61 61 60 60 60 61 62 63 62 90 88 111 104 108 103 107 107 107 108 104 106 100 99 97 100 84 82 86 98 97 92 87 92 92 97 96 97 96 97 96
60 60 60 60 60 61 61 60 59 60 62 65 66 86 94 97 116 113 112 110 113 111 106 110 110 104 103 98 103 90 74 68 78 93 94 86 73 75 92 96 94 94 96 97 97
60 59 59 60 60 61 61 60 60 61 65 68 67 92 91 113 118 114 115 112 115 115 111 112 112 105 102 103 96 83 80 66 74 92 95 81 57 72 89 93 91 94 95 95 97
59 59 59 59 60 60 60 59 61 65 68 70 86 92 93 100 107 113 114 108 112 112 112 113 109 101 101 89 80 81 64 77 81 87 93 92 70 81 94 94 91 92 94 95 95
59 59 58 59 59 60 59 60 69 71 79 94 98 92 100 100 108 111 115 112 107 107 104 104 101 95 94 77 69 76 76 79 83 81 90 89 84 88 92 92 91 93 93 94 95
59 58 58 58 59 59 67 93 92 89 92 94 96 95 103 109 114 108 112 108 106 101 92 99 91 84 88 93 93 91 88 85 86 86 76 84 85 87 90 90 90 91 92 93 95
59 58 58 58 59 59 69 94 92 95 83 98 100 102 107 108 98 104 112 99 97 90 96 93 87 92 96 96 93 91 87 85 91 95 90 85 81 81 76 83 90 91 90 93 95
58 57 58 58 59 74 96 94 103 102 84 94 100 99 101 104 97 100 106 101 95 91 92 87 92 94 92 92 89 89 86 86 85 91 92 84 71 65 70 75 83 91 94 95 95
57 57 57 55 73 93 94 102 105 101 77 86 92 98 102 103 94 108 109 102 96 90 93 92 98 95 92 89 91 83 93 90 87 82 67 81 60 59 63 70 75 69 75 95 95
57 57 56 56 78 89 97 104 103 95 64 92 94 109 104 97 98 100 110 103 91 92 93 88 92 92 89 90 94 86 93 89 85 80 72 65 65 61 65 61 66 77 93 95 97
56 56 56 74 83 91 103 103 96 74 65 86 95 92 93 95 97 102 100 104 102 93 94 92 101 96 93 95 95 95 90 87 79 70 60 60 60 55 65 68 70 90 92 95 98
56 56 57 77 86 101 101 92 74 68 91 85 88 92 90 89 92 95 91 89 85 79 80 88 91 97 99 89 95 92 84 71 68 59 57 73 67 64 72 76 81 90 93 96 99
54 54 68 84 98 99 93 80 65 84 86 94 93 91 86 91 90 91 89 85 92 89 83 79 75 90 97 90 86 86 84 72 60 63 68 76 55 63 67 72 76 95 95 96 96
53 85 90 95 98 95 83 71 76 84 91 88 91 85 85 90 91 89 87 87 91 92 80 79 81 95 95 95 93 85 79 88 73 77 70 65 60 65 66 65 76 92 92 92 94
66 78 89 102 101 90 78 66 81 92 91 91 82 88 82 87 86 87 86 92 90 95 95 86 76 91 93 95 95 89 92 75 74 62 58 51 56 61 70 70 77 74 89 91 94
69 80 97 103 95 83 73 79 88 95 92 87 87 86 88 87 88 86 86 92 95 94 96 90 83 82 90 86 85 86 82 81 79 71 61 55 64 75 72 66 67 72 91 92 94
77 75 97 99 77 80 77 84 76 90 95 90 91 90 89 89 86 86 86 90 96 94 87 92 83 75 81 91 92 85 78 83 72 67 70 63 63 74 71 66 71 69 92 93 95
72 82 98 94 72 76 84 87 90 88 89 90 88 92 92 87 81 88 88 93 94 92 84 88 80 71 74 84 87 81 82 78 84 79 70 68 63 73 71 69 73 89 92 92 92
71 73 84 87 85 78 77 83 84 92 89 91 89 93 88 86 90 85 86 91 94 92 72 83 81 76 71 76 85 79 83 86 83 73 74 76 78 77 68 61 64 89 92 91 92
69 74 83 76 80 80 81 83 83 83 90 92 87 88 87 81 85 84 89 89 91 75 87 85 75 80 83 86 87 85 84 85 82 82 75 78 78 75 72 68 70 88 90 89 91
67 74 80 78 81 79 74 79 81 86 88 85 83 89 90 84 85 81 84 85 85 87 85 86 75 80 77 85 85 82 86 85 85 85 83 81 79 76 75 72 67 74 87 89 89
80 80 72 70 78 77 79 81 82 87 90 91 88 87 86 84 90 91 92 90 88 85 83 81 79 76 70 81 81 73 76 70 81 83 81 76 82 77 71 72 73 76 89 89 88
MSLP
1019.01 1018.35 1017.69 1017.20 1016.53 1015.87 1015.26 1014.85 1014.33 1013.81 1013.30 1012.86 1012.48 1012.04 1011.65 1011.32 1010.24 1009.81 1008.09 1006.55 1006.46 1006.36 1006.81 1005.55 1004.33 1003.71 1003.07 1002.56 1003.63 1006.47 1009.04 1007.20 1005.28 1001.92 1001.72 1000.95 1000.81 1001.94 1004.20 1006.72 1004.73 1004.73 1004.55 1006.31 1007.48
1018.87 1018.51 1017.77 1016.95 1016.50 1015.84 1015.18 1014.62 1014.11 1013.56 1013.10 1012.63 1012.29 1011.99 1011.73 1011.42 1009.97 1007.68 1006.53 1006.31 1006.36 1006.41 1006.13 1004.48 1002.94 1002.41 1001.94 1001.34 1001.56 1004.89 1005.80 1005.35 1002.10 1001.52 1000.84 1001.05 1001.17 1001.83 1004.39 1006.89 1006.99 1006.36 1005.40 1006.65 1007.49
1018.92 1018.26 1017.66 1017.06 1016.30 1015.63 1015.07 1014.37 1013.90 1013.31 1012.86 1012.38 1012.11 1011.79 1011.73 1011.40 1009.08 1005.98 1006.15 1006.28 1006.37 1006.47 1005.71 1004.32 1002.86 1001.86 1001.20 1000.63 1000.47 1001.65 1002.25 1001.68 1001.67 1002.06 1001.17 1000.98 1001.58 1002.38 1003.63 1005.52 1006.15 1005.35 1005.76 1006.67 1007.24
1018.99 1018.39 1017.79 1016.91 1016.14 1015.51 1014.77 1014.24 1013.68 1013.05 1012.59 1012.19 1011.91 1011.73 1011.62 1010.64 1007.44 1005.69 1006.23 1006.12 1006.43 1006.19 1005.25 1003.50 1002.02 1001.09 1000.41 1000.07 1000.26 1001.03 1001.22 1001.71 1001.88 1001.62 1001.23 1001.52 1001.82 1002.86 1003.55 1004.12 1005.07 1005.05 1005.87 1006.37 1006.77
1019.17 1018.49 1017.72 1016.98 1016.11 1015.37 1014.63 1013.98 1013.33 1012.82 1012.23 1011.93 1011.75 1011.56 1011.19 1008.75 1005.67 1005.58 1006.16 1006.11 1006.15 1005.99 1004.62 1002.61 1001.57 1000.90 1000.25 1000.00 1000.41 1000.59 1001.20 1001.95 1001.76 1001.78 1001.99 1002.17 1002.28 1002.76 1003.76 1004.27 1004.80 1005.11 1005.79 1005.93 1006.13
1019.21 1018.37 1017.64 1016.79 1015.99 1015.16 1014.41 1013.55 1013.07 1012.38 1011.91 1011.57 1011.57 1011.58 1010.43 1006.91 1004.55 1005.13 1005.13 1005.53 1005.02 1004.61 1003.52 1002.28 1001.71 1001.43 1001.04 1000.45 1000.81 1001.56 1003.52 1003.55 1003.22 1002.33 1002.16 1003.14 1004.39 1004.24 1004.47 1004.41 1004.72 1005.05 1005.37 1005.32 1005.67
1019.14 1018.36 1017.55 1016.64 1015.71 1014.80 1014.00 1013.28 1012.58 1011.95 1011.53 1011.21 1011.31 1010.83 1008.56 1005.15 1003.43 1004.20 1004.42 1004.36 1004.03 1003.48 1003.02 1002.21 1001.92 1001.79 1001.14 1000.83 1001.53 1003.89 1006.11 1008.81 1004.58 1003.17 1002.39 1004.19 1005.98 1006.20 1005.41 1004.98 1004.74 1005.23 1005.30 1005.21 1005.46
1019.08 1018.27 1017.38 1016.44 1015.37 1014.50 1013.64 1012.94 1012.02 1011.55 1011.23 1011.09 1011.12 1010.00 1006.69 1004.09 1003.52 1003.47 1003.69 1003.61 1003.39 1003.13 1002.86 1002.52 1002.10 1002.05 1001.40 1001.61 1002.73 1004.22 1006.03 1008.74 1004.46 1003.11 1002.52 1004.26 1007.28 1006.19 1005.89 1005.19 1004.81 1004.93 1005.02 1005.35 1005.29
1019.10 1018.23 1017.29 1016.29 1015.17 1014.15 1013.14 1012.28 1011.39 1011.09 1011.00 1010.95 1010.58 1008.93 1005.17 1003.99 1003.69 1003.37 1003.31 1003.12 1002.66 1002.65 1002.47 1002.16 1002.11 1001.83 1001.13 1002.02 1003.55 1004.48 1005.07 1005.11 1004.32 1003.57 1002.67 1002.31 1004.89 1005.51 1005.00 1004.46 1004.57 1004.91 1004.93 1005.01 1005.44
1019.13 1018.26 1017.28 1016.23 1015.04 1014.03 1012.74 1011.37 1010.61 1010.60 1010.37 1009.72 1008.65 1007.45 1004.57 1003.27 1003.05 1003.09 1002.94 1002.95 1002.70 1002.37 1002.10 1001.86 1001.54 1001.12 1001.29 1003.22 1002.99 1002.69 1003.28 1003.36 1002.17 1003.39 1002.51 1002.46 1003.60 1004.32 1004.35 1004.44 1004.49 1004.37 1004.84 1004.68 1004.97
1019.22 1018.37 1017.36 1016.12 1014.92 1013.98 1012.77 1010.34 1010.42 1010.01 1009.03 1006.70 1005.67 1004.83 1002.91 1002.67 1002.18 1002.72 1002.77 1002.92 1002.93 1002.67 1002.05 1001.33 1001.02 1001.07 1001.27 1000.92 1000.89 1000.88 1000.68 1000.77 1001.61 1002.27 1002.91 1003.34 1003.88 1003.41 1003.29 1004.39 1004.23 1004.43 1004.66 1004.70 1004.50
1019.40 1018.51 1017.42 1016.03 1014.63 1013.41 1013.32 1010.34 1009.92 1009.41 1007.95 1006.01 1005.03 1003.87 1003.13 1002.79 1002.67 1002.73 1002.69 1002.79 1002.61 1002.33 1001.79 1001.27 1000.42 1001.37 1001.05 1000.77 1000.48 1000.31 1000.10 1000.43 1000.35 1000.67 1001.78 1003.42 1004.87 1006.24 1006.86 1006.34 1004.92 1004.67 1004.78 1004.95 1004.61
1019.52 1018.66 1017.59 1015.89 1014.22 1012.63 1010.99 1010.09 1009.26 1008.73 1007.65 1004.77 1004.07 1003.59 1003.19 1003.46 1002.76 1002.21 1002.30 1002.46 1002.33 1001.90 1001.59 1000.93 1000.70 1000.95 1001.01 1000.51 1000.15 999.89 999.76 1000.07 1000.59 1001.03 1001.62 1004.10 1007.24 1008.85 1010.16 1008.78 1007.67 1005.95 1004.87 1004.50 1004.57
1019.53 1018.79 1017.85 1016.33 1013.91 1011.79 1010.13 1009.51 1008.97 1008.92 1007.13 1003.71 1002.87 1002.81 1002.85 1002.75 1002.59 1001.76 1001.88 1002.30 1001.90 1001.65 1001.27 1000.67 1000.19 1000.02 1000.12 1000.35 1000.11 999.78 999.99 1000.65 1001.23 1002.29 1004.59 1006.89 1009.23 1011.24 1011.46 1009.41 1007.73 1009.70 1006.13 1004.31 1004.32
1019.50 1018.73 1017.95 1017.63 1015.39 1011.96 1010.10 1009.55 1009.28 1009.03 1005.34 1001.51 1001.69 1001.54 1001.92 1002.20 1002.07 1001.64 1001.45 1001.81 1001.89 1001.54 1001.43 1000.91 1000.26 999.94 999.82 999.93 1000.04 1000.41 1000.67 1001.17 1002.26 1003.47 1006.14 1007.56 1009.95 1012.58 1012.23 1010.27 1007.91 1006.68 1004.76 1004.22 1003.96
1019.13 1018.50 1018.03 1015.68 1014.36 1011.71 1010.04 1009.54 1009.21 1007.91 1003.34 1001.33 1001.27 1001.36 1001.57 1001.96 1001.59 1001.12 1001.68 1002.25 1002.09 1001.99 1001.59 1000.94 1000.42 1000.30 1000.11 1000.26 1000.29 1000.55 1000.75 1001.24 1003.54 1005.43 1007.29 1007.88 1010.17 1013.04 1011.57 1010.01 1008.32 1005.52 1004.76 1004.09 1003.30
1018.67 1017.77 1018.07 1015.99 1012.41 1010.69 1010.13 1009.37 1007.94 1004.96 1001.57 1000.82 1000.79 1001.23 1001.34 1001.39 1001.47 1001.21 1001.73 1001.98 1002.30 1002.23 1001.59 1000.86 1000.17 999.95 999.85 1000.19 1000.02 1000.09 1000.51 1001.16 1002.87 1005.74 1006.76 1007.13 1009.40 1010.50 1009.23 1008.83 1007.78 1005.08 1004.23 1003.88 1003.45
1018.11 1016.56 1014.41 1013.26 1011.31 1010.92 1010.33 1009.09 1006.35 1002.33 1000.65 1000.37 1000.17 1000.66 1000.81 1000.83 1001.25 1001.29 1001.45 1001.51 1001.74 1001.96 1001.37 1000.43 999.81 1000.02 999.77 1000.35 1000.32 1000.61 1000.96 1001.73 1002.58 1003.91 1005.29 1007.35 1011.23 1011.40 1010.35 1009.58 1007.80 1004.56 1004.04 1003.99 1004.09
1017.47 1014.09 1012.21 1010.90 1010.67 1010.83 1010.11 1007.56 1003.78 1002.15 1000.53 1000.53 1000.23 1000.08 1000.34 1000.43 1000.50 1000.98 1001.27 1000.97 1000.87 1001.01 1001.36 1000.71 999.79 999.86 1000.15 1000.43 1000.69 1000.60 1001.21 1001.73 1002.91 1003.46 1005.21 1009.26 1012.93 1012.41 1012.54 1009.98 1006.09 1004.12 1003.81 1004.21 1004.43
1018.05 1014.22 1010.49 1009.19 1009.72 1010.25 1009.22 1006.70 1004.14 1002.39 1001.91 1001.20 1000.19 999.90 999.68 999.82 1000.25 1000.43 1000.59 1000.82 1000.91 1000.72 1000.95 1001.15 1000.97 1000.23 1000.37 1000.68 1000.64 1000.80 1001.26 1002.01 1003.19 1004.10 1005.96 1010.19 1010.99 1010.78 1010.93 1009.93 1006.76 1005.44 1004.16 1003.96 1004.13
1017.85 1012.79 1008.75 1008.80 1009.91 1009.56 1007.62 1005.19 1003.16 1002.29 1002.39 1001.69 1000.31 999.78 999.29 999.33 999.86 1000.19 1000.10 1000.23 1000.38 1000.79 1001.05 1001.58 1001.76 1001.43 1000.90 1000.47 1000.05 1000.42 1001.06 1002.20 1003.09 1004.69 1006.31 1007.94 1009.22 1010.17 1010.44 1009.18 1007.38 1006.06 1003.99 1003.72 1003.83
1016.13 1011.65 1008.59 1008.83 1009.19 1008.20 1006.53 1004.92 1003.67 1002.92 1002.16 1001.91 1001.13 1000.02 999.43 999.39 999.75 1000.09 999.98 1000.23 1000.64 1001.29 1001.49 1001.60 1002.19 1002.13 1001.63 1001.17 1001.06 1001.47 1001.96 1001.98 1002.67 1003.97 1005.12 1006.83 1007.87 1007.98 1007.80 1008.27 1005.80 1005.46 1003.83 1004.19 1004.25
1015.46 1010.98 1008.49 1008.75 1007.96 1006.91 1005.50 1004.20 1003.58 1003.07 1002.37 1001.61 1001.13 1000.51 1000.21 1000.12 1000.40 1000.18 1000.37 1001.42 1001.69 1002.02 1002.81 1002.43 1002.61 1002.74 1002.01 1001.45 1001.47 1001.74 1002.10 1002.40 1001.79 1002.78 1003.45 1004.09 1005.59 1006.70 1007.54 1006.72 1005.73 1003.71 1003.27 1004.20 1004.57
1016.13 1011.33 1008.84 1008.23 1007.79 1006.99 1005.79 1003.94 1003.39 1003.07 1002.68 1002.27 1001.51 1000.96 1001.09 1000.72 1000.80 1000.79 1000.96 1001.59 1002.17 1002.65 1003.41 1003.49 1003.31 1002.99 1002.25 1001.67 1001.19 1001.18 1001.16 1000.95 1001.28 1002.04 1002.24 1002.70 1003.63 1005.39 1007.27 1006.97 1007.33 1003.64 1003.37 1003.88 1004.09
1016.30 1011.47 1008.73 1007.49 1007.12 1006.64 1005.84 1004.31 1003.18 1002.49 1002.83 1002.50 1002.07 1001.73 1001.39 1001.23 1000.93 1001.11 1001.15 1001.69 1002.31 1003.12 1003.57 1003.99 1003.80 1003.35 1002.55 1001.76 1001.00 1000.71 1000.89 1000.93 1000.89 1001.17 1001.57 1002.05 1003.27 1004.93 1006.19 1007.67 1006.74 1000.61 1003.81 1004.10 1003.64
1015.62 1012.14 1009.96 1008.53 1007.33 1006.33 1005.52 1004.88 1003.71 1002.64 1002.21 1002.31 1002.38 1001.80 1001.46 1001.51 1001.40 1001.41 1001.63 1001.79 1001.74 1003.10 1003.51 1003.94 1003.99 1003.59 1002.89 1002.10 1001.53 1001.17 1001.01 1001.26 1001.09 1001.18 1001.45 1002.19 1002.87 1004.71 1004.68 1003.83 1006.01 1004.59 1002.93 1002.56 1003.13
1014.66 1013.17 1012.53 1009.43 1007.71 1006.74 1005.35 1004.99 1004.24 1003.29 1002.56 1002.43 1002.68 1002.26 1002.01 1002.79 1002.59 1002.49 1002.55 1002.78 1003.05 1003.13 1003.21 1003.54 1003.75 1003.53 1002.84 1002.33 1002.03 1002.21 1002.58 1003.20 1001.93 1001.77 1002.36 1002.41 1002.99 1003.60 1003.06 1004.25 1004.56 1004.21 1003.08 1003.01 1002.41
Wind_Speed
18 19 19 18 19 19 19 18 17 17 16 15 15 14 14 14 19 7 10 2 3 12 5 14 15 15 16 18 20 27 5 12 27 12 14 10 9 11 32 38 18 12 20 18 14
20 18 20 21 19 19 19 19 18 18 17 16 14 13 12 12 11 18 2 5 7 9 9 17 14 7 14 20 10 11 9 12 7 11 7 9 13 9 18 23 2 8 17 15 13
21 21 21 20 21 21 20 20 19 18 17 16 13 13 10 11 11 8 7 7 8 8 12 19 14 16 7 12 4 4 5 13 11 6 6 11 12 19 11 13 16 12 17 15 12
21 21 22 23 22 22 21 20 19 19 17 15 12 11 8 7 5 6 8 8 5 8 14 20 15 15 13 13 5 7 7 7 10 4 10 13 9 15 10 11 19 16 16 14 12
20 20 22 22 23 22 22 20 19 18 17 14 10 8 7 10 17 9 8 6 8 8 15 17 16 12 13 13 6 13 9 14 2 11 9 3 10 7 10 9 4 17 12 13 10
20 21 22 23 23 22 22 21 18 17 15 12 7 4 7 15 12 13 13 9 12 13 16 14 11 13 16 11 10 18 29 31 20 4 11 6 14 3 7 8 7 11 12 11 12
21 21 23 24 24 24 22 21 18 16 13 9 4 5 12 18 7 14 11 10 12 13 12 17 13 14 19 14 18 28 21 5 34 15 11 17 20 13 2 7 11 10 5 2 5
22 22 24 25 26 25 24 21 21 15 12 5 4 6 9 18 9 9 11 12 11 11 13 14 15 14 18 18 16 11 11 8 30 18 10 18 6 32 19 9 9 9 10 7 5
22 23 25 26 27 26 25 25 18 10 9 5 6 9 16 6 10 10 12 12 15 12 14 12 12 16 19 20 12 3 7 12 22 28 26 2 15 23 17 8 10 8 6 8 7
24 23 25 27 28 26 28 16 3 8 7 9 11 9 16 13 14 17 14 11 12 10 15 16 15 16 2 9 17 13 21 20 8 7 23 7 19 14 9 10 8 7 7 9 8
24 24 25 28 28 25 16 7 5 6 11 11 11 16 13 18 14 12 11 10 14 15 15 18 16 3 29 9 12 14 17 16 9 14 18 12 10 7 15 9 8 5 9 7 7
23 24 26 29 30 29 8 8 8 9 10 16 18 18 14 9 9 13 17 12 13 15 17 18 8 12 24 12 15 14 16 14 12 12 7 10 12 16 23 19 8 11 10 9 9
23 23 25 30 32 12 11 6 9 10 8 13 17 15 8 11 16 16 18 13 17 17 16 17 9 10 21 12 16 16 13 15 17 20 4 15 16 12 7 25 23 13 5 10 2
22 22 23 31 6 14 7 7 8 7 7 13 20 16 17 15 17 18 16 14 18 15 16 16 14 10 6 14 17 14 19 21 18 18 10 21 5 7 9 14 22 23 37 11 9
22 22 21 8 12 9 10 11 9 4 7 18 19 8 16 17 17 16 3 9 16 17 9 13 17 16 10 12 15 15 18 15 12 11 7 9 1 2 5 6 24 15 7 5 5
23 22 19 2 8 15 14 11 7 7 9 8 11 13 19 18 20 13 16 12 12 13 16 20 14 17 9 12 14 10 14 2 10 5 7 6 9 4 10 9 19 7 5 2 4
25 26 11 9 8 13 11 9 7 10 7 11 17 17 18 20 19 12 9 13 12 12 14 19 19 17 12 9 18 10 14 9 3 1 6 8 9 9 17 16 24 10 10 4 6
27 30 9 9 10 10 9 9 8 13 8 5 9 15 19 16 18 20 11 15 17 16 16 16 7 10 6 4 9 13 13 7 14 11 14 7 2 3 14 21 23 5 8 5 10
29 9 9 11 13 7 7 10 8 11 5 1 9 12 16 18 11 16 15 14 12 18 12 13 9 10 5 5 12 7 10 13 16 14 4 10 9 12 6 19 25 12 11 7 6
10 10 12 14 6 5 7 14 15 9 7 9 8 11 14 18 14 11 16 15 13 13 8 13 9 9 9 3 11 12 9 7 5 11 7 8 7 6 9 21 14 25 12 9 3
6 7 5 9 5 7 10 16 11 4 5 9 11 9 13 11 13 13 8 9 11 10 9 8 6 13 16 9 13 5 4 1 3 3 2 2 7 6 4 5 15 26 5 9 8
7 7 10 7 6 8 13 22 6 9 7 10 7 12 7 3 5 9 12 6 9 1 11 10 6 9 15 8 14 11 14 13 4 4 4 3 4 13 19 20 25 16 8 9 5
6 10 7 8 7 11 17 22 7 10 11 9 7 10 5 2 4 5 8 8 4 2 3 5 2 7 16 11 3 5 7 19 6 5 11 12 3 20 23 19 20 11 12 12 12
6 6 8 8 11 16 17 15 14 12 10 6 10 4 4 8 3 4 3 6 5 1 2 6 5 8 11 14 10 9 16 16 4 4 10 12 12 9 10 14 25 6 7 11 10
5 7 7 7 13 16 16 16 13 10 11 11 9 11 11 5 10 11 8 12 8 6 2 1 5 12 15 19 18 15 14 16 14 10 11 11 15 14 8 7 12 6 11 4 11
5 5 8 11 10 11 13 12 15 13 10 13 11 13 14 7 4 11 15 12 7 6 8 5 7 12 16 18 17 19 18 13 16 12 9 13 12 3 6 9 12 29 12 7 12
6 6 5 10 11 9 9 14 16 16 4 11 12 7 6 10 10 6 6 5 3 5 6 7 7 9 14 18 12 14 6 19 13 15 16 14 12 8 6 4 15 18 10 8 12
Wind_Direction
351 347 343 342 337 335 333 333 327 322 317 312 312 313 318 320 302 225 263 122 168 161 204 261 228 247 244 253 101 57 54 216 247 111 173 223 119 83 62 33 16 50 102 114 133
348 349 342 338 337 333 332 331 325 319 313 310 309 310 317 328 292 274 216 183 193 164 246 261 310 274 259 254 171 107 217 229 19 27 13 39 102 124 97 122 283 293 99 117 146
344 345 342 337 335 333 332 327 322 315 312 307 308 309 317 311 283 235 166 213 192 188 271 286 273 266 271 305 20 360 75 18 48 352 354 61 67 93 84 128 181 147 124 139 150
341 343 340 335 333 331 328 324 319 313 310 304 305 305 318 261 278 104 191 204 159 246 271 273 268 274 290 292 92 210 80 66 49 26 34 31 78 97 92 66 183 128 136 149 176
337 339 336 334 330 327 324 321 317 311 306 300 303 306 278 237 253 140 170 180 193 224 265 289 300 353 330 336 13 324 39 26 119 72 29 308 54 75 91 102 101 126 150 176 167
334 337 335 332 328 324 323 318 315 309 303 297 293 284 252 256 103 149 168 172 244 218 268 285 333 333 295 321 334 23 37 7 336 17 93 53 25 8 110 139 157 137 187 175 142
336 337 334 330 327 325 323 318 313 310 307 297 248 248 266 247 141 174 171 209 223 260 284 306 334 313 307 305 51 83 63 285 285 279 108 79 25 304 48 190 157 194 179 164 178
336 336 333 330 326 324 322 316 308 305 304 309 208 249 260 237 251 199 200 233 242 263 270 281 291 304 279 55 29 46 6 132 275 271 146 98 206 250 253 178 172 202 189 182 165
336 335 332 328 324 323 322 312 293 289 276 270 233 226 245 167 223 242 232 237 244 230 255 271 278 274 282 19 351 272 224 198 233 350 323 103 180 221 187 195 158 186 180 204 168
333 334 330 325 321 324 322 287 267 306 216 234 259 247 268 219 208 227 225 245 288 265 255 250 256 256 224 163 242 226 236 232 111 214 321 47 103 136 145 164 174 191 175 168 225
332 331 329 323 319 323 336 311 219 198 231 235 168 228 203 229 196 200 214 218 242 261 274 267 258 42 298 338 339 312 320 349 112 154 191 59 90 149 165 144 151 186 174 210 216
329 329 327 321 317 316 274 324 21 334 296 273 264 238 263 339 206 225 230 222 245 250 259 254 267 9 310 317 303 290 308 347 307 2 14 102 64 41 31 321 183 203 170 240 199
326 326 325 322 317 293 319 15 316 322 268 258 230 239 232 224 247 206 214 219 247 243 256 275 268 192 247 295 300 317 318 346 332 326 334 13 60 48 50 294 316 326 224 172 304
324 322 327 326 302 334 298 350 326 356 272 216 199 219 219 211 228 246 199 228 244 256 268 273 281 267 301 294 283 309 348 331 330 0 48 360 68 77 239 282 320 91 258 179 141
318 319 323 322 312 299 358 319 340 264 260 139 183 189 211 208 218 222 252 219 252 276 259 268 288 314 281 316 334 316 322 319 21 13 353 350 34 264 309 252 247 265 100 108 208
316 317 330 247 237 260 290 319 279 235 240 157 134 186 197 206 229 208 201 230 272 271 279 287 286 289 275 283 303 301 287 211 53 25 340 208 174 267 227 232 253 166 98 205 228
315 309 304 303 265 334 308 286 233 248 120 152 178 192 202 197 222 211 191 219 230 240 249 256 251 245 255 313 284 236 299 315 258 49 234 237 231 185 221 242 278 157 165 121 20
317 308 257 231 267 281 290 263 258 246 215 81 190 190 202 201 208 225 216 239 212 244 274 287 336 268 160 250 318 317 299 310 321 327 352 178 84 232 275 306 287 162 120 80 55
310 288 253 237 219 242 261 244 246 345 36 202 223 186 200 208 202 216 209 253 240 209 245 284 316 148 197 309 300 322 319 346 332 287 332 69 5 304 315 278 281 181 115 101 96
323 288 255 251 164 221 246 254 298 309 329 297 228 211 194 204 194 222 213 217 246 280 191 269 312 287 120 216 265 246 295 331 333 317 23 143 208 230 185 237 330 338 135 115 196
266 259 114 135 175 228 238 240 269 89 313 268 278 222 236 197 199 215 229 242 198 247 243 266 270 290 315 278 276 193 223 238 299 313 22 293 122 127 91 163 272 248 149 138 96
275 254 139 176 216 231 245 244 285 281 259 255 277 298 253 59 180 219 219 206 62 263 282 230 228 269 281 337 37 29 337 303 310 339 210 211 161 193 180 208 224 249 133 80 54
263 264 188 206 238 237 241 255 243 257 255 236 257 283 349 134 209 257 107 76 74 221 11 293 260 259 263 233 51 317 268 256 248 227 275 303 106 194 206 214 240 197 127 141 108
279 256 217 207 249 280 288 269 234 212 278 290 298 248 239 263 170 260 209 118 138 167 54 14 301 271 289 317 300 219 234 268 288 253 288 295 334 101 101 78 314 130 131 88 92
248 259 318 209 224 236 252 286 235 206 210 214 247 251 234 240 231 203 253 133 161 149 201 206 264 273 278 285 290 301 289 284 291 287 276 323 336 71 82 149 229 187 103 140 106
285 301 345 285 305 282 227 250 274 235 213 221 228 235 249 234 350 16 10 23 164 143 208 184 266 264 279 283 281 278 289 279 277 291 308 324 301 219 203 67 101 262 140 140 84
262 304 266 288 239 264 242 233 250 257 272 256 319 254 258 32 4 12 348 341 336 316 214 190 251 265 270 287 321 305 304 352 346 339 330 333 338 238 292 153 213 253 152 110 101